TimeEDT,TemperatureF,Dew PointF,Humidity,Sea Level PressureIn,VisibilityMPH,Wind Direction,Wind SpeedMPH,Gust SpeedMPH,PrecipitationIn,Events,Conditions,WindDirDegrees,DateUTC
12:52 AM,44.1,41.0,89,30.00,10.0,Calm,Calm,-,N/A,,Clear,0,2013-06-19 04:52:00
1:52 AM,42.1,37.9,85,30.00,10.0,Calm,Calm,-,N/A,,Clear,0,2013-06-19 05:52:00
2:18 AM,41.0,37.4,87,29.98,10.0,Calm,Calm,-,N/A,,Scattered Clouds,0,2013-06-19 06:18:00
2:38 AM,41.0,37.4,87,29.98,9.0,Calm,Calm,-,N/A,,Mostly Cloudy,0,2013-06-19 06:38:00
2:45 AM,41.0,37.4,87,29.98,1.0,Calm,Calm,-,N/A,,Mostly Cloudy,0,2013-06-19 06:45:00
2:52 AM,39.9,37.9,93,30.00,0.8,Calm,Calm,-,N/A,,Overcast,0,2013-06-19 06:52:00
2:54 AM,39.2,37.4,93,29.98,1.2,Calm,Calm,-,N/A,,Overcast,0,2013-06-19 06:54:00
3:02 AM,39.2,37.4,93,29.98,6.0,Calm,Calm,-,N/A,,Overcast,0,2013-06-19 07:02:00
3:09 AM,41.0,37.4,87,29.98,1.5,Calm,Calm,-,N/A,,Overcast,0,2013-06-19 07:09:00
3:12 AM,41.0,37.4,87,29.99,0.8,Calm,Calm,-,N/A,,Mist,0,2013-06-19 07:12:00
3:52 AM,39.9,37.9,93,30.00,0.8,Calm,Calm,-,N/A,,Mist,0,2013-06-19 07:52:00
4:50 AM,39.2,37.4,93,30.01,1.0,Calm,Calm,-,0.00,,Mist,0,2013-06-19 08:50:00
4:52 AM,39.0,37.0,93,30.02,1.0,Calm,Calm,-,0.00,,Mist,0,2013-06-19 08:52:00
5:00 AM,39.2,37.4,93,30.01,0.5,Calm,Calm,-,N/A,Fog,Fog,0,2013-06-19 09:00:00
5:52 AM,39.0,37.0,93,30.04,0.2,Calm,Calm,-,0.00,Fog,Fog,0,2013-06-19 09:52:00
6:00 AM,39.2,37.4,93,30.02,1.2,Calm,Calm,-,N/A,,Mostly Cloudy,0,2013-06-19 10:00:00
6:03 AM,39.2,37.4,93,30.02,3.0,Calm,Calm,-,N/A,,Mostly Cloudy,0,2013-06-19 10:03:00
6:12 AM,39.2,37.4,93,30.02,6.0,Calm,Calm,-,0.00,Rain,Light Rain,0,2013-06-19 10:12:00
6:52 AM,43.0,41.0,93,30.04,4.0,Calm,Calm,-,0.00,,Scattered Clouds,0,2013-06-19 10:52:00
7:52 AM,51.1,46.0,83,30.04,10.0,Calm,Calm,-,N/A,,Clear,0,2013-06-19 11:52:00
8:52 AM,57.9,46.9,67,30.06,10.0,Calm,Calm,-,N/A,,Clear,0,2013-06-19 12:52:00
9:52 AM,62.1,44.1,52,30.06,10.0,NNW,8.1,-,N/A,,Clear,340,2013-06-19 13:52:00
10:52 AM,64.0,41.0,43,30.06,10.0,NNE,8.1,-,N/A,,Clear,20,2013-06-19 14:52:00
11:52 AM,64.9,39.0,39,30.06,10.0,Calm,Calm,-,N/A,,Partly Cloudy,0,2013-06-19 15:52:00
12:52 PM,68.0,39.9,36,30.07,10.0,North,8.1,-,N/A,,Clear,350,2013-06-19 16:52:00
1:52 PM,68.0,39.0,35,30.07,10.0,NNW,8.1,-,N/A,,Clear,340,2013-06-19 17:52:00
2:52 PM,70.0,42.1,36,30.06,10.0,North,8.1,-,N/A,,Clear,350,2013-06-19 18:52:00
3:52 PM,70.0,39.9,33,30.07,10.0,NNW,8.1,-,N/A,,Partly Cloudy,340,2013-06-19 19:52:00
4:52 PM,70.0,39.9,33,30.08,10.0,North,4.6,-,N/A,,Partly Cloudy,360,2013-06-19 20:52:00
5:52 PM,68.0,39.9,36,30.09,10.0,NNW,9.2,-,N/A,,Partly Cloudy,330,2013-06-19 21:52:00
6:52 PM,66.9,39.9,37,30.10,10.0,NNW,5.8,-,N/A,,Clear,340,2013-06-19 22:52:00
7:52 PM,63.0,41.0,45,30.12,10.0,NNW,4.6,-,N/A,,Clear,340,2013-06-19 23:52:00
8:52 PM,54.0,45.0,72,30.14,10.0,Calm,Calm,-,N/A,,Clear,0,2013-06-20 00:52:00
9:52 PM,48.9,43.0,80,30.17,10.0,SSE,3.5,-,N/A,,Clear,160,2013-06-20 01:52:00
10:52 PM,46.0,41.0,83,30.19,10.0,Calm,Calm,-,N/A,,Clear,0,2013-06-20 02:52:00
11:52 PM,43.0,39.9,89,30.20,10.0,Calm,Calm,-,N/A,,Clear,0,2013-06-20 03:52:00